Theta_e
317 317 317 315 314 314 315 315 315 316 316 316 316 313 308 308 309 308 307 306 307 307 306 306 306 306 306 306 307 307 307 308 310 313 312 311 312 313 318 317 313 312 311 311 312 313 312 313 312 313 315 315 317 318 316 318 326 329 332 329 321 322 320 316 320 321 322 320 318 317 318 319 316 316 314 313 317 316 317 319 322 331 331 330 329 323 328 336
318 317 316 315 314 314 314 315 315 316 316 316 315 313 309 308 307 307 307 306 306 306 306 305 305 306 306 306 307 307 307 307 309 314 312 311 315 315 317 318 315 312 311 312 311 312 313 314 311 313 318 316 316 318 318 318 322 329 334 328 324 331 322 313 318 317 319 319 318 318 317 318 317 316 314 315 316 315 318 316 325 345 338 329 331 329 333 335
318 317 316 315 314 314 314 315 315 315 316 316 315 313 309 308 307 307 307 306 305 306 305 305 305 305 306 306 307 307 308 309 310 312 310 311 316 317 314 314 313 311 312 312 312 313 314 314 310 313 317 315 316 318 320 319 318 328 335 327 327 334 321 313 316 317 319 318 318 318 315 316 316 315 314 316 316 315 320 318 321 343 343 333 331 330 333 333
318 317 316 315 315 314 314 315 315 315 315 315 314 312 309 308 307 307 307 306 305 305 305 305 305 305 306 306 307 308 310 311 311 313 311 311 315 316 312 312 312 312 312 313 314 314 314 313 310 313 316 315 317 317 319 320 316 321 329 329 325 322 318 316 316 318 318 315 318 318 315 316 315 314 314 316 317 315 318 319 319 330 341 334 330 330 331 331
317 316 315 315 315 314 314 314 314 314 315 314 313 312 310 308 307 307 306 306 305 305 305 305 305 305 305 306 307 310 311 309 311 316 314 312 316 315 311 311 312 312 312 313 315 314 313 312 310 315 317 315 317 316 316 318 317 317 318 321 321 316 316 317 316 319 316 314 317 317 316 316 315 314 316 316 317 319 317 317 317 322 334 333 330 329 329 330
317 316 316 316 315 314 314 314 314 314 314 315 314 312 310 308 308 307 306 306 305 305 304 304 305 305 306 307 307 310 313 310 312 317 317 315 316 313 311 312 312 312 312 313 314 313 313 312 312 316 316 315 316 315 315 314 316 319 314 316 318 316 317 316 316 318 317 316 317 317 316 315 316 316 316 316 316 321 318 317 316 315 326 331 329 328 329 329
317 316 316 315 314 314 313 313 313 314 314 315 315 312 310 309 308 307 307 306 305 305 305 304 305 305 307 307 307 312 315 313 313 317 317 315 313 312 312 312 311 312 312 312 313 313 315 313 314 317 316 316 314 313 315 314 317 322 317 315 316 316 317 316 316 318 319 319 316 315 315 315 318 316 314 315 317 322 316 315 311 309 322 329 328 328 328 328
316 316 316 315 314 313 313 313 313 313 314 315 315 313 311 310 309 308 307 306 306 306 305 305 305 305 308 309 310 313 314 313 314 317 315 312 312 312 311 311 311 311 312 314 314 313 314 314 313 315 315 315 314 314 314 313 316 321 318 315 316 316 316 315 317 320 319 318 316 315 316 317 317 315 315 317 321 322 316 314 312 314 324 329 329 330 326 326
316 316 315 314 314 314 313 312 313 313 313 314 315 313 312 310 309 308 307 306 306 306 305 305 305 306 310 311 312 312 311 314 316 315 313 311 311 312 312 312 312 312 314 314 313 312 313 314 314 314 314 314 314 315 315 314 314 317 318 317 317 316 315 315 316 319 318 317 316 316 317 316 315 313 316 321 321 320 318 319 319 323 331 330 329 329 325 325
316 316 315 314 314 314 313 312 312 313 313 314 314 313 312 311 309 308 307 306 306 306 305 305 306 307 310 312 311 310 313 316 316 313 311 311 312 312 313 313 313 313 314 314 313 312 313 315 315 314 314 314 315 315 314 314 313 316 318 317 317 316 315 316 316 316 317 317 316 318 317 316 315 314 318 321 317 316 320 321 318 326 334 328 327 327 324 324
316 316 315 315 315 314 313 312 312 312 313 313 314 313 312 311 310 307 306 306 306 306 305 306 307 307 310 312 310 311 315 317 315 313 311 311 313 313 314 313 313 314 314 314 313 313 314 314 313 312 313 313 315 316 315 315 315 316 318 317 317 317 315 315 316 315 316 314 316 318 316 316 315 316 320 319 314 314 320 322 318 324 330 323 325 325 321 322
316 316 315 315 314 314 313 312 311 311 312 312 313 313 312 311 310 307 306 306 306 306 306 306 307 309 311 309 310 312 315 317 314 312 311 312 313 313 314 313 313 315 315 314 314 314 314 314 314 314 313 314 316 316 315 316 315 316 319 319 317 319 318 314 315 316 316 315 316 317 313 315 316 317 320 317 314 315 316 321 320 323 324 320 322 322 320 319
316 316 315 315 314 314 313 312 311 310 311 311 312 312 312 311 309 307 306 306 306 306 307 307 307 313 312 308 312 314 315 316 313 312 312 313 314 314 314 314 314 315 315 314 314 314 314 314 315 315 315 317 316 313 315 315 315 316 317 320 320 320 319 314 314 315 315 315 316 313 311 316 319 318 317 315 315 314 314 318 319 320 320 317 317 319 320 316
315 315 315 314 314 313 313 312 310 310 309 310 311 311 312 311 309 307 306 306 306 307 308 308 308 313 312 308 313 315 315 315 313 312 312 313 314 314 314 314 314 314 315 315 314 313 314 314 314 315 315 317 316 312 316 317 317 316 313 322 324 317 318 318 315 316 314 314 315 312 312 319 322 319 315 314 315 316 317 319 317 317 317 315 315 315 317 315
315 315 314 314 314 313 313 312 310 309 309 310 310 311 311 310 309 307 306 306 307 308 309 309 310 311 309 309 313 315 315 313 312 312 313 314 314 314 314 314 313 313 313 313 314 314 315 315 316 317 315 314 315 315 320 319 321 321 314 321 322 314 320 323 316 316 315 314 315 313 314 319 320 318 316 314 315 316 318 320 318 317 316 315 315 314 314 313
315 315 314 314 313 313 312 311 310 310 310 310 310 311 311 310 309 307 306 307 308 309 309 311 314 311 307 310 313 314 313 312 313 313 315 315 314 315 314 314 313 313 314 314 315 315 314 317 316 316 317 316 317 320 323 322 324 325 318 320 321 316 318 320 317 317 317 316 316 313 315 320 318 317 317 316 316 316 318 321 320 319 318 317 316 314 314 313
314 314 314 313 313 312 312 311 310 310 310 310 310 311 310 310 310 308 307 308 310 311 311 313 314 310 307 309 313 315 313 312 313 314 316 315 315 315 313 314 313 313 315 314 316 314 313 316 314 314 317 318 319 321 319 316 319 321 319 319 321 320 317 318 319 318 316 317 317 315 315 320 320 319 321 320 317 317 319 321 322 322 320 318 316 315 314 314
314 314 313 313 312 312 311 310 309 309 310 310 310 310 311 312 312 311 310 311 311 311 311 311 310 309 309 309 314 315 313 313 313 314 315 316 316 314 314 315 312 313 316 316 315 314 314 317 318 319 318 316 317 321 321 319 319 319 319 317 317 318 317 319 320 316 316 316 317 317 317 320 320 318 319 318 314 317 320 321 321 321 320 317 316 315 314 314
314 313 313 312 312 311 310 310 309 310 310 310 310 311 312 313 313 313 313 312 310 307 309 310 308 310 312 311 315 315 313 313 313 313 315 316 314 314 315 314 315 316 316 317 314 313 320 320 318 318 316 316 317 320 326 326 324 323 325 327 324 320 317 317 318 315 315 316 318 319 318 320 319 316 318 317 313 315 318 318 316 316 316 315 314 314 314 314
313 313 312 312 311 311 310 309 309 310 310 310 311 311 311 313 313 313 314 315 312 308 310 311 308 312 316 315 316 315 313 313 313 313 314 314 314 314 314 313 318 318 316 321 316 315 324 322 318 318 315 316 318 321 324 321 321 322 323 327 326 322 318 316 317 316 315 315 318 318 317 318 318 317 317 314 311 313 316 317 316 315 314 314 314 315 314 314
313 313 312 311 310 310 310 310 310 310 310 310 312 313 313 312 311 311 313 314 311 308 312 312 310 314 316 314 314 312 313 314 312 313 314 314 314 314 314 315 318 316 316 322 318 317 324 320 318 324 320 316 317 319 318 315 318 322 323 324 322 320 319 315 316 319 316 314 317 318 316 317 317 316 315 313 311 313 314 315 315 315 314 313 314 315 314 313
313 312 311 310 310 310 310 310 310 310 310 310 312 315 318 313 309 310 310 308 306 307 311 312 312 316 314 312 313 313 315 316 313 314 314 314 314 313 314 316 316 316 316 318 319 319 322 318 319 325 320 314 314 316 318 320 325 328 325 323 320 319 318 316 317 320 316 314 319 322 319 317 315 315 314 313 313 313 312 313 314 314 313 313 313 314 313 313
312 312 310 310 309 310 311 311 310 309 310 311 311 314 317 313 311 311 308 306 307 309 312 312 316 319 315 312 314 313 314 315 314 315 314 313 315 314 315 315 315 317 315 317 320 318 318 319 321 322 316 313 315 316 319 321 324 329 326 319 319 320 318 317 317 318 316 314 317 322 320 316 316 318 319 315 313 312 312 312 312 313 314 314 313 314 313 314
311 311 310 310 310 311 311 310 310 310 310 311 311 314 316 313 312 312 311 310 310 311 312 311 315 320 317 313 313 314 314 314 314 314 312 314 315 313 315 315 315 317 316 318 319 317 319 318 317 318 316 318 317 315 320 320 316 323 334 332 323 321 320 319 318 318 316 315 317 318 316 320 326 330 333 326 316 314 316 316 316 315 313 313 315 315 314 314
311 310 310 310 309 310 310 310 310 310 311 310 312 315 315 313 312 311 313 312 311 312 310 309 313 316 316 313 313 316 314 314 315 314 312 313 313 313 314 313 314 317 317 317 316 317 319 314 314 317 319 323 320 317 323 324 316 315 327 331 323 325 325 322 322 321 318 316 316 314 313 324 333 331 331 326 317 317 317 317 320 319 314 314 315 314 314 316
310 310 310 309 309 311 311 312 310 310 312 311 313 316 314 313 311 311 314 314 313 312 308 308 310 311 313 314 315 316 314 314 313 312 312 313 312 313 313 312 313 315 315 316 317 318 317 315 317 321 324 325 322 320 320 324 321 312 316 322 324 331 329 323 321 317 318 316 313 314 314 319 322 319 320 319 314 315 314 314 318 317 315 315 315 315 318 320
310 311 310 309 310 312 311 312 310 310 313 312 313 315 313 312 310 310 315 315 314 313 309 308 308 309 313 313 313 314 315 315 312 311 312 312 312 311 312 313 312 313 315 317 318 316 316 318 319 324 332 329 321 319 317 322 323 312 317 324 329 332 328 328 327 319 321 318 318 326 322 317 318 315 318 318 315 318 319 320 320 316 313 312 315 322 326 326
311 310 309 310 311 311 311 312 310 311 313 312 313 313 312 312 309 311 316 314 313 312 309 308 307 310 313 311 312 313 314 315 315 313 311 311 312 311 314 316 314 315 315 316 320 316 316 321 321 325 333 327 320 320 320 328 327 315 319 326 329 331 333 338 337 328 324 317 320 329 318 315 323 323 323 318 315 320 322 322 322 319 315 310 315 324 330 329
312 311 310 310 311 310 311 312 311 311 312 313 314 312 311 310 308 312 316 311 310 311 309 308 308 312 313 310 311 313 314 316 316 315 311 311 312 310 313 315 315 317 314 316 323 319 315 318 320 324 325 320 319 320 322 331 328 318 319 324 325 329 332 335 333 325 320 315 322 328 315 313 321 326 327 317 314 321 323 323 322 319 316 314 318 324 329 333
312 312 311 310 311 311 312 312 311 312 312 313 314 311 310 312 311 310 310 309 313 312 309 309 309 312 313 311 311 313 315 317 315 314 313 314 313 311 312 312 315 322 321 322 326 321 316 313 315 318 318 319 319 318 320 325 321 318 325 328 326 329 332 335 335 324 314 318 329 327 317 312 315 326 329 318 318 322 321 324 324 320 320 328 337 333 330 334
314 313 311 310 311 311 312 313 312 312 312 311 312 311 311 317 316 310 307 311 317 313 308 310 311 312 312 311 312 313 316 316 314 313 314 314 314 314 313 311 316 321 321 323 324 320 318 316 315 316 316 319 322 319 319 324 323 322 331 330 320 325 328 331 334 324 313 323 329 324 319 313 313 325 328 322 322 320 318 322 323 320 322 335 350 342 329 330
315 314 312 311 311 310 312 314 312 312 312 310 312 313 314 315 313 311 310 312 316 315 312 312 312 313 312 312 314 315 317 318 314 313 316 317 316 315 316 318 319 318 315 320 322 318 318 319 317 315 314 318 324 323 320 326 329 323 324 322 314 319 322 324 331 325 320 322 320 319 321 315 316 322 322 323 324 321 318 317 316 319 323 336 351 347 333 331
316 315 314 312 311 310 312 315 313 312 311 310 312 318 319 314 310 312 314 312 314 314 313 313 312 313 312 312 315 315 317 317 314 313 315 318 317 315 317 319 319 319 319 322 322 317 318 323 318 315 316 316 319 323 319 322 326 318 317 319 317 319 317 320 327 321 320 322 316 316 319 318 321 320 318 320 318 320 319 315 316 320 328 344 351 345 336 332
316 316 315 312 311 311 312 315 314 311 310 311 312 315 316 313 310 311 312 312 315 314 313 315 313 312 311 312 313 314 315 314 313 314 315 316 316 315 316 313 314 324 327 321 320 319 319 323 321 318 319 318 316 319 323 324 322 318 318 317 317 324 323 321 324 320 320 324 318 314 318 325 325 317 316 319 318 322 323 318 318 320 327 337 340 339 337 333
316 316 315 313 313 312 313 314 314 312 311 311 311 311 311 311 311 311 310 313 318 316 314 313 312 312 312 312 312 313 316 316 314 314 315 315 315 315 316 312 313 324 325 316 317 318 315 318 322 319 316 318 318 318 322 323 319 318 317 314 314 321 323 319 318 321 321 321 319 317 321 328 323 315 316 318 320 323 321 319 319 321 324 325 328 335 336 335
315 315 315 314 314 314 314 314 313 311 311 310 309 311 310 309 312 313 312 315 319 315 313 312 312 313 313 313 313 312 315 318 316 314 315 314 314 314 315 314 313 316 317 316 319 318 315 316 318 317 315 316 317 316 318 320 317 316 315 319 320 318 321 319 314 315 315 314 318 318 320 323 316 315 318 316 316 318 319 321 321 322 322 322 328 330 327 332
314 315 315 315 315 315 314 315 312 310 313 311 307 310 309 307 313 316 316 317 316 313 313 314 313 314 313 314 315 312 314 318 316 314 316 314 314 315 315 315 313 312 313 317 318 318 321 320 316 316 317 315 313 315 319 318 317 319 320 323 319 313 319 323 317 320 319 316 320 318 316 317 313 316 321 316 313 314 319 321 320 323 323 323 329 325 320 327
313 313 314 315 315 315 315 315 313 313 316 312 307 312 312 309 312 316 317 315 313 313 315 316 315 314 314 314 314 312 314 317 315 315 316 314 314 315 315 315 314 312 312 313 314 316 319 319 315 314 317 317 315 317 319 316 314 320 322 320 319 318 322 320 316 321 320 316 322 322 315 313 313 316 317 314 315 317 318 319 319 322 322 321 323 320 320 325
312 312 314 314 313 314 316 315 313 314 316 312 307 310 314 312 314 318 319 314 312 315 316 319 318 314 314 315 314 313 314 315 315 316 316 313 315 315 313 314 315 313 312 312 313 315 316 314 315 314 314 316 316 317 321 320 315 316 316 315 318 323 324 321 318 319 319 316 320 322 318 315 317 318 315 312 319 322 318 318 321 320 319 318 316 317 322 324
312 313 314 313 311 314 315 313 313 314 313 311 309 310 314 317 318 320 319 316 316 315 314 320 320 314 315 316 313 313 314 315 314 315 315 313 313 314 312 312 315 314 312 311 312 316 315 311 313 314 312 315 318 318 319 320 318 318 318 317 318 318 319 322 319 318 320 321 320 319 316 318 321 319 316 315 318 320 319 319 319 319 318 316 314 316 320 321
312 312 313 313 313 312 312 312 312 312 312 312 313 315 316 318 319 319 319 318 320 319 317 321 320 316 317 316 314 315 315 316 315 313 315 313 312 314 313 312 314 314 312 310 311 316 314 312 318 319 317 319 320 317 316 317 317 317 316 317 318 318 318 319 317 316 318 318 321 319 313 317 320 315 314 317 316 316 317 315 317 321 323 324 320 316 316 318
311 311 312 314 312 310 311 312 308 307 311 311 312 314 313 314 317 318 318 319 321 321 321 322 320 317 317 316 315 316 316 316 316 314 315 315 313 315 316 314 314 313 312 312 311 316 318 319 324 324 321 322 318 313 314 318 317 315 316 317 317 317 318 319 319 321 318 315 318 320 317 316 315 313 316 319 317 319 320 318 321 325 326 326 323 319 318 321
312 311 312 313 311 309 311 311 306 306 309 308 309 311 310 312 316 317 317 318 320 322 322 322 320 315 316 319 317 316 316 315 315 315 316 315 314 316 317 315 314 312 312 313 311 314 319 320 320 319 320 324 322 317 316 317 316 315 317 318 319 320 322 325 326 323 322 320 318 318 318 315 312 318 325 324 321 322 323 321 322 325 329 330 332 334 334 335
311 311 311 311 311 310 311 310 309 308 308 307 309 312 310 311 313 315 318 318 318 322 322 322 321 317 319 322 318 316 316 315 315 315 316 318 316 317 319 317 315 313 312 314 313 313 315 317 318 318 318 321 323 321 319 317 316 318 321 320 321 325 324 322 321 316 317 324 322 317 317 314 315 320 326 330 330 323 322 324 324 326 331 334 339 345 345 346
308 309 310 310 309 310 311 310 310 309 308 308 310 311 311 312 311 312 316 316 315 318 320 320 319 319 322 321 315 315 316 316 318 316 315 319 318 317 320 319 316 313 313 315 314 312 316 319 318 317 316 316 318 319 318 319 318 319 325 322 318 321 320 317 318 317 317 321 320 317 314 313 316 317 317 327 330 322 323 329 327 325 328 331 335 340 343 343
308 309 309 309 309 310 312 311 311 310 309 309 310 310 311 313 312 310 312 314 313 314 317 318 316 318 322 320 316 317 316 315 319 318 315 318 319 319 319 319 317 314 316 318 315 315 323 322 314 313 315 314 314 316 319 323 320 318 322 321 317 317 318 316 318 319 317 316 316 316 314 313 315 314 314 320 322 320 324 329 327 325 326 327 327 330 333 334
307 308 309 310 310 310 311 311 311 310 309 309 310 310 310 311 312 312 310 312 313 313 315 317 316 318 322 321 319 319 317 315 317 318 317 316 319 320 317 317 317 315 317 318 315 318 325 320 314 314 315 313 315 319 321 321 319 318 319 319 318 317 316 317 318 317 315 316 316 316 315 314 314 312 313 316 316 317 319 319 319 319 319 321 322 325 327 327
306 306 306 308 310 311 311 310 311 310 309 309 310 310 310 310 312 313 312 311 312 313 314 316 316 317 319 320 321 321 319 316 316 318 317 316 319 320 317 316 316 316 318 316 313 318 321 318 317 316 314 314 315 318 320 318 317 318 317 318 318 317 316 316 316 315 315 316 315 314 315 316 314 312 312 313 313 313 313 313 314 314 315 318 319 321 323 323
303 304 304 305 307 309 311 310 311 310 310 310 310 309 310 310 311 312 312 311 312 312 314 316 316 316 316 317 320 323 321 317 317 319 319 319 321 321 320 320 318 316 318 316 314 317 319 321 322 316 314 316 315 316 319 318 317 317 317 317 317 316 316 315 314 314 315 315 315 314 315 315 312 311 313 315 315 314 313 313 314 315 317 320 321 323 325 327
302 303 305 305 305 307 309 311 311 311 310 310 311 310 309 310 311 311 312 312 313 313 313 315 315 315 316 315 317 321 321 318 317 318 319 320 321 322 322 322 321 318 316 315 314 313 315 323 325 317 315 316 314 315 317 317 317 318 318 317 315 315 315 314 314 315 314 315 314 314 315 314 312 311 312 315 316 315 314 315 317 319 321 323 323 323 325 328
300 301 302 305 306 306 308 310 311 311 311 310 311 311 310 310 310 311 312 312 313 314 313 313 314 314 315 315 316 317 317 317 318 318 318 319 320 321 319 318 320 321 317 315 317 314 315 321 322 317 317 317 315 317 317 316 316 317 318 318 315 314 314 314 315 315 314 315 315 315 315 313 312 315 315 314 315 316 315 315 316 318 320 320 318 318 320 322
299 299 300 303 306 306 307 309 310 312 312 311 310 311 310 310 310 311 312 312 312 313 313 313 313 314 314 314 315 314 314 317 319 318 318 319 319 319 318 317 319 322 319 317 319 320 318 319 320 319 318 316 318 319 318 317 317 317 316 316 315 314 314 313 314 315 314 315 315 315 315 312 314 318 317 314 315 317 317 316 317 317 317 317 317 316 316 318
Wind_Speed
18 18 17 16 14 13 13 12 11 10 10 9 8 11 13 13 12 11 12 13 13 13 13 13 12 11 10 8 8 6 5 5 4 5 6 6 9 8 5 8 9 6 6 6 6 5 2 1 2 1 2 2 1 0 1 1 2 4 3 3 1 3 3 4 6 6 5 5 6 5 5 8 4 1 1 2 6 4 4 6 3 5 6 3 0 12 29 30
18 18 16 16 15 13 12 12 11 10 10 8 8 11 14 13 12 11 10 11 12 12 12 12 11 10 9 8 7 5 4 5 3 5 9 8 8 8 6 8 8 7 7 6 6 5 3 0 2 4 4 1 1 1 1 1 2 3 3 3 2 5 3 4 5 5 3 6 8 5 5 6 6 5 2 3 2 3 5 4 5 5 6 6 8 20 28 29
19 18 16 16 15 12 11 11 11 11 10 8 9 11 13 13 12 11 10 11 12 12 11 11 10 9 8 7 5 4 3 1 1 5 10 10 9 7 7 8 8 8 7 6 6 5 4 1 1 3 4 1 1 2 2 1 1 2 4 3 4 6 3 3 3 3 5 6 10 5 4 3 4 4 2 4 5 3 4 3 1 0 2 3 7 16 24 24
20 19 17 16 15 12 11 12 11 11 9 8 9 11 13 13 12 11 10 10 11 11 11 10 9 9 8 7 5 5 3 2 1 5 8 11 10 8 8 9 8 7 7 6 5 4 3 1 1 3 4 1 3 2 1 1 1 2 4 3 5 3 2 2 1 2 3 4 10 7 5 1 3 3 3 7 6 2 6 7 7 9 9 9 7 12 20 21
21 20 18 16 13 12 13 13 12 10 9 8 9 10 12 12 12 11 10 10 10 10 10 9 9 8 7 6 5 6 4 3 3 4 7 12 10 9 9 9 7 6 7 6 5 3 2 1 4 4 4 1 1 3 2 3 2 3 1 4 4 3 2 3 3 2 2 5 6 8 6 4 3 2 4 9 7 6 7 8 11 11 13 15 13 14 16 16
20 19 18 16 13 13 14 13 12 10 8 7 8 9 11 11 11 10 9 9 9 9 9 9 8 8 7 6 6 6 4 2 2 2 7 12 11 10 10 8 7 6 6 6 4 2 2 3 4 3 2 2 2 2 3 2 3 3 2 2 1 2 3 1 3 3 3 8 6 7 4 3 5 1 3 8 8 7 6 8 11 9 15 20 18 16 14 14
19 18 18 16 12 13 14 13 12 10 8 8 7 8 10 10 10 9 9 9 8 8 8 8 8 8 7 7 6 3 2 3 3 2 7 11 12 11 9 7 6 6 6 5 3 2 4 5 4 4 4 2 3 3 2 1 5 5 2 1 1 1 3 0 1 2 6 8 4 3 3 4 6 2 2 4 8 8 6 2 5 10 16 18 15 14 15 16
19 18 17 15 12 13 14 13 11 10 8 9 7 7 9 9 9 9 8 8 7 7 7 8 8 8 9 9 6 3 1 4 3 5 9 11 11 10 9 7 6 5 5 3 2 3 4 4 4 4 4 1 4 3 2 4 5 4 3 2 1 2 1 1 2 5 6 5 2 5 3 3 5 2 1 6 9 8 5 3 5 10 14 13 13 13 13 14
20 19 17 15 13 12 14 12 11 10 9 9 7 7 9 9 9 8 8 7 7 7 7 8 8 9 10 8 6 3 3 3 4 7 10 11 10 9 9 8 7 6 4 2 2 4 3 3 4 4 4 3 4 4 2 4 0 2 4 3 2 1 2 1 3 4 4 2 2 5 1 4 2 1 2 8 9 5 2 5 5 10 11 11 11 13 13 13
20 19 17 15 13 11 12 12 11 10 9 9 7 7 8 9 9 9 8 7 6 7 7 8 9 10 11 5 6 3 4 2 5 9 11 11 10 10 9 8 7 6 4 2 3 5 3 4 4 4 5 2 4 3 1 4 3 3 6 5 4 1 3 2 2 2 2 2 2 6 2 5 3 2 4 8 4 5 7 5 4 8 10 11 10 11 15 15
20 19 17 15 13 11 11 11 11 10 9 8 7 6 8 9 9 9 8 7 7 7 7 8 9 10 9 5 5 4 3 3 7 11 12 11 10 10 9 8 8 7 5 3 4 5 3 5 5 5 2 2 3 2 1 2 4 6 8 6 6 5 3 2 3 0 1 2 2 6 2 5 4 1 7 5 1 6 8 7 6 7 8 10 10 10 12 15
20 19 18 15 13 11 10 10 12 12 10 8 7 6 7 9 9 9 8 7 7 7 8 9 9 10 6 4 3 5 3 4 8 11 11 10 10 9 8 8 8 7 5 3 5 5 3 3 5 5 1 3 4 2 1 2 5 6 6 5 6 8 3 2 1 1 1 2 1 3 2 5 2 6 10 3 2 5 8 7 7 7 7 7 9 8 8 14
20 19 17 15 12 10 9 9 11 13 12 10 9 6 7 9 8 8 8 7 7 8 8 9 10 10 6 1 3 5 3 5 9 11 10 10 9 9 8 8 8 7 5 3 6 6 3 1 5 6 3 6 3 1 3 3 4 3 4 5 2 6 4 5 1 1 1 1 2 3 0 6 7 11 10 4 2 6 7 7 7 7 7 6 7 7 7 12
21 19 16 14 12 10 9 9 11 12 12 12 10 8 8 8 7 8 7 7 8 8 9 10 11 8 3 1 3 3 5 8 11 11 10 10 9 9 8 7 7 6 5 4 6 7 4 3 6 6 3 4 3 2 4 5 3 2 2 3 2 2 3 7 2 2 3 0 3 6 2 6 8 10 9 7 1 8 7 8 7 7 7 6 6 7 8 10
20 18 16 14 13 11 9 9 11 11 11 11 10 8 8 7 7 7 8 8 8 9 10 10 10 7 1 2 2 3 7 9 11 12 11 12 11 8 8 8 6 6 5 5 7 7 6 6 6 5 1 2 4 6 4 3 3 3 2 1 3 3 4 7 2 5 5 1 5 7 2 6 7 9 8 6 1 7 7 7 7 7 7 7 7 7 8 9
20 17 16 15 13 11 10 10 11 10 9 9 9 9 7 6 7 8 9 9 9 10 9 7 8 6 2 1 0 3 6 7 11 12 11 12 10 7 9 9 7 7 8 7 8 7 6 6 4 2 3 3 5 6 4 4 3 3 3 2 2 2 2 4 2 2 3 1 3 3 2 4 4 6 7 4 3 4 5 6 7 7 8 8 7 8 8 8
19 18 16 14 13 12 12 11 11 10 8 8 9 8 7 7 7 8 9 10 10 9 7 4 5 3 1 1 1 2 4 7 12 13 11 10 8 10 11 7 5 7 7 6 6 5 5 4 2 0 3 4 3 5 5 1 2 3 2 1 3 3 3 2 3 3 2 2 1 1 2 6 6 7 9 7 3 2 5 7 8 8 8 8 7 8 8 8
20 18 16 14 13 12 12 12 11 10 9 8 8 9 9 9 9 10 11 13 11 8 4 2 3 2 2 2 3 3 5 9 12 12 11 8 8 11 7 3 4 6 6 5 3 3 3 4 2 1 3 3 2 5 4 4 5 5 3 2 2 2 3 3 3 3 2 2 2 1 2 10 12 9 10 9 3 3 8 8 7 8 9 9 8 8 8 9
20 18 16 13 13 13 12 12 12 11 10 9 10 12 12 10 10 9 9 9 7 4 1 2 4 3 3 4 3 3 7 10 10 9 9 7 7 8 3 3 5 6 5 3 2 1 2 3 4 3 2 2 5 5 6 7 8 9 6 5 5 3 3 4 4 3 1 3 3 5 5 8 11 10 10 10 4 5 9 8 8 9 8 9 8 9 10 9
20 17 15 13 13 13 12 13 12 11 11 11 14 13 8 6 6 4 1 1 2 3 2 5 5 2 0 1 4 8 9 8 5 5 7 6 6 6 2 4 5 6 4 4 3 1 4 4 3 5 7 7 8 7 5 4 6 7 6 5 4 4 2 3 2 4 1 3 5 5 5 8 10 11 12 10 4 4 9 10 10 10 10 10 9 11 12 10
20 17 15 14 13 13 13 14 12 12 12 14 14 7 3 5 4 3 2 3 5 3 0 3 4 2 1 3 8 9 7 4 1 2 6 5 5 6 1 3 4 3 1 3 3 2 5 5 6 8 9 8 7 6 6 6 5 6 6 5 3 2 2 2 2 4 2 1 4 3 4 10 10 11 12 9 7 8 11 11 12 13 12 10 10 13 13 9
19 18 16 14 13 14 15 14 13 13 13 13 10 3 3 2 3 7 7 1 5 3 2 2 3 3 1 4 8 4 4 4 1 2 4 4 3 4 1 4 5 4 1 3 4 3 4 3 9 8 6 5 4 5 7 6 5 5 4 5 3 1 1 3 3 4 4 1 4 5 5 10 10 11 12 11 11 11 10 10 12 12 11 11 11 12 11 9
20 18 16 15 15 16 15 14 13 13 13 13 9 5 2 0 3 8 6 4 2 1 2 2 2 2 2 2 6 2 4 4 5 4 5 4 2 3 4 5 4 4 3 4 6 5 3 5 8 5 6 8 5 4 7 6 5 4 4 4 2 2 2 1 3 4 3 2 1 4 6 9 8 6 10 12 10 9 8 9 11 10 11 13 11 9 9 10
20 18 17 17 17 17 15 14 13 12 14 13 11 8 5 4 4 6 3 3 2 1 1 2 2 4 3 2 5 5 3 3 5 6 6 6 4 2 4 4 5 4 3 5 8 7 5 6 3 6 6 8 7 4 6 6 3 2 3 5 4 3 4 3 1 1 3 4 3 4 5 7 5 4 7 7 4 6 5 5 9 10 11 11 10 9 9 9
18 17 17 19 18 17 15 13 11 12 13 11 11 8 5 4 3 3 2 3 1 1 2 2 1 4 6 5 5 5 3 1 1 4 7 8 6 3 3 2 4 4 5 6 7 5 5 5 4 8 5 6 7 4 5 7 3 1 2 5 7 7 6 2 2 4 4 4 3 4 4 6 6 5 7 6 6 7 4 4 9 11 9 9 10 10 8 8
19 18 18 19 19 20 16 8 10 12 10 8 9 6 4 3 3 3 3 4 1 1 2 3 2 5 8 5 4 4 3 1 2 2 6 6 3 3 3 1 2 4 6 5 4 3 2 2 5 7 6 6 6 3 3 6 6 1 3 5 7 8 7 4 3 3 1 3 3 4 3 5 7 5 8 8 8 11 8 8 11 11 9 8 7 8 7 9
21 19 19 21 22 23 12 4 11 14 6 7 9 7 4 4 4 2 4 5 3 2 5 2 0 6 9 5 6 6 3 4 2 3 3 3 1 3 3 3 2 2 4 4 2 2 2 3 6 6 6 6 5 2 4 6 7 2 3 6 8 8 7 5 5 3 1 3 4 4 4 3 6 6 7 5 6 10 11 11 12 11 11 9 5 6 8 9
23 21 21 22 24 20 7 7 18 13 3 6 10 7 5 6 5 2 5 2 2 2 4 2 1 6 5 3 5 5 2 3 5 1 1 3 1 3 3 5 5 4 2 5 4 4 1 4 4 6 6 4 4 4 4 7 6 3 4 7 6 7 7 5 6 3 1 2 5 5 2 2 6 7 5 3 3 8 10 12 12 11 11 8 5 7 9 8
24 23 22 21 22 16 5 9 18 10 4 9 10 8 7 7 5 4 4 2 1 2 2 2 3 4 3 4 4 3 1 2 2 3 2 4 1 3 3 5 6 6 3 4 6 3 0 4 6 7 6 4 4 3 4 5 4 3 5 7 5 6 6 5 5 3 3 2 4 6 3 3 6 7 5 2 2 7 9 9 10 9 9 7 7 9 8 6
24 23 22 20 21 17 6 7 13 10 7 9 10 11 9 6 4 4 2 4 2 1 0 2 3 3 6 7 2 1 2 2 0 1 2 1 2 5 2 2 6 6 5 6 4 1 2 2 1 3 3 5 5 2 1 3 6 7 6 7 6 6 5 4 3 4 2 3 7 7 5 3 4 6 4 3 4 6 6 7 7 8 8 7 6 6 5 3
24 21 22 21 20 18 8 4 11 13 8 7 11 11 7 4 3 4 5 4 3 2 1 2 2 5 12 12 4 1 3 2 0 5 3 1 2 3 2 2 4 5 3 4 3 4 5 4 1 1 1 4 6 5 4 4 4 7 5 5 4 4 4 4 4 4 1 5 6 5 2 3 4 6 5 5 7 6 6 6 7 9 9 8 6 5 4 2
24 21 22 22 19 18 8 2 11 14 7 8 10 6 4 4 2 4 4 2 3 3 4 5 4 6 11 10 5 4 4 2 0 5 6 4 3 3 3 4 4 4 2 3 1 2 3 2 3 4 1 4 6 5 4 6 5 6 5 6 4 2 3 3 3 0 3 6 4 3 1 2 6 7 7 9 10 9 7 7 7 8 8 7 6 6 4 4
22 21 22 21 19 18 10 3 10 14 10 10 7 4 6 4 6 7 4 2 2 2 4 5 3 6 10 8 5 5 4 2 3 2 3 4 4 5 4 3 5 5 3 4 3 2 1 5 4 2 2 2 6 6 3 0 1 4 5 5 4 2 1 2 4 2 4 5 3 3 1 3 5 4 9 12 10 8 6 7 8 7 7 7 7 5 4 4
23 21 22 21 18 18 12 4 9 15 12 9 5 4 5 6 7 7 6 4 1 2 3 5 7 8 8 6 5 5 3 1 4 5 3 4 5 6 6 4 4 5 4 4 3 5 3 4 4 3 2 3 4 5 6 6 4 3 4 6 5 5 5 4 4 3 4 3 3 3 1 3 3 3 7 9 8 8 6 7 7 6 7 6 6 5 5 5
24 23 22 21 18 17 12 5 9 15 12 7 5 4 8 9 6 5 6 5 1 3 3 5 9 9 4 1 2 6 4 2 4 5 5 6 6 7 6 6 6 4 5 5 2 2 4 4 5 3 2 5 6 3 4 7 2 2 3 5 3 5 5 2 3 5 3 2 3 2 3 5 4 6 9 7 8 9 7 7 7 6 7 5 6 6 5 5
21 23 20 19 19 18 14 8 8 12 9 5 5 7 8 5 2 3 5 4 4 6 7 5 5 6 5 2 3 6 2 3 5 4 4 4 3 6 6 5 7 6 6 6 3 2 3 3 5 4 3 2 4 2 2 3 3 2 3 3 5 4 7 4 2 1 3 2 4 1 5 5 4 7 9 6 8 9 8 7 6 6 6 5 8 7 4 5
15 16 11 12 17 19 17 11 6 7 5 4 7 9 4 2 2 4 4 4 6 9 10 5 2 5 6 4 4 6 2 2 4 3 4 3 2 6 6 4 5 9 8 5 3 4 5 1 4 1 1 3 1 2 3 3 4 5 3 5 4 2 4 4 1 3 4 3 5 1 5 6 2 5 6 6 4 8 9 9 7 8 7 6 9 9 4 4
11 7 2 5 14 18 18 15 7 4 3 4 9 7 2 2 3 2 2 4 7 7 7 6 3 4 6 5 5 7 5 3 4 4 3 3 4 5 8 4 4 9 9 4 2 3 5 2 4 1 3 4 4 3 1 4 3 5 4 4 4 2 1 2 2 2 1 2 5 4 5 5 5 6 3 2 3 8 9 9 7 8 8 7 10 10 8 7
9 3 1 4 10 12 17 18 8 3 3 5 10 6 1 3 1 2 2 2 6 6 5 5 2 3 5 6 6 7 6 6 7 5 3 4 5 5 9 6 4 8 10 6 4 3 4 4 3 2 2 2 3 2 4 0 3 3 2 2 3 2 4 3 3 3 4 3 4 4 5 4 6 6 7 7 7 7 7 7 7 9 10 9 9 8 8 7
7 1 0 6 10 11 17 16 7 4 4 6 7 4 1 1 1 3 4 1 3 3 4 5 3 5 5 5 6 7 6 5 8 6 4 6 5 5 8 8 6 8 9 6 4 3 3 3 4 2 3 1 2 3 7 8 5 3 3 4 2 1 2 2 1 2 4 4 3 3 5 7 6 4 8 10 9 9 9 8 8 9 10 10 8 8 7 6
4 1 1 10 16 14 13 9 3 3 4 1 1 1 0 1 2 4 5 3 1 0 2 4 5 5 6 5 4 6 5 4 7 6 4 6 7 5 7 9 8 8 7 4 4 4 3 3 4 2 1 3 5 3 6 10 7 6 6 7 7 5 4 3 3 1 2 3 4 3 6 9 5 5 7 8 8 9 8 8 7 8 9 10 9 7 6 6
4 2 2 14 25 19 10 4 2 1 1 0 1 1 1 1 2 3 5 3 3 2 1 3 4 3 5 5 5 6 6 5 6 6 4 7 9 7 7 8 10 11 9 7 7 4 4 4 5 3 4 5 6 4 2 5 3 2 3 5 6 4 5 6 5 4 1 2 3 4 3 8 3 5 5 6 7 7 6 7 7 8 8 8 8 7 6 6
3 1 1 17 28 20 8 2 0 1 0 1 1 1 1 1 1 2 3 3 2 2 2 1 2 2 3 4 5 7 8 5 6 8 6 6 8 7 6 8 11 12 9 6 5 3 3 4 4 1 3 3 5 5 4 1 0 1 2 2 5 4 4 6 5 4 3 4 3 3 5 8 2 1 4 4 5 5 3 6 6 6 6 6 7 7 6 6
2 1 1 13 22 15 6 2 3 3 2 1 1 1 1 1 1 1 2 1 1 2 1 1 1 1 1 2 5 8 10 6 6 9 6 4 6 5 6 10 11 10 8 6 7 6 3 3 4 3 1 3 4 4 3 2 2 3 3 3 5 5 6 4 2 3 2 6 8 5 8 8 3 3 2 3 5 6 4 4 4 4 6 6 6 6 6 5
2 1 1 4 9 8 4 3 4 3 3 3 2 1 1 0 1 3 2 1 0 2 2 0 1 1 1 1 3 6 10 7 4 6 5 2 4 3 5 11 12 10 8 7 8 7 6 5 5 6 6 6 6 5 5 4 3 2 3 6 7 8 9 6 3 3 6 8 8 7 11 9 2 3 2 3 5 5 7 6 3 4 5 5 6 6 6 6
1 1 1 0 1 2 2 3 5 4 3 5 3 2 4 3 1 2 3 2 1 2 2 1 1 1 1 2 4 4 9 8 3 4 6 6 3 3 3 8 11 10 7 7 10 7 3 3 7 10 11 12 11 7 5 8 7 5 6 8 10 10 11 8 4 6 10 6 4 8 13 12 10 6 5 6 4 4 7 7 6 6 6 6 7 6 6 6
1 1 3 2 1 1 2 2 5 5 5 7 4 3 7 6 2 1 3 3 3 3 2 1 0 2 1 3 4 4 7 8 3 4 7 7 3 2 0 4 8 9 6 8 8 6 4 4 9 12 13 13 10 7 8 11 12 12 11 10 11 11 12 11 10 13 11 4 7 13 11 11 18 15 11 11 9 7 8 8 7 8 8 8 8 7 7 8
1 0 1 1 1 3 4 5 7 6 7 8 5 4 7 8 5 4 3 1 1 3 3 1 2 5 4 3 3 3 5 6 5 4 4 4 2 1 2 1 3 4 5 5 5 5 5 6 8 9 12 13 7 6 9 12 11 12 13 13 14 14 14 16 18 19 14 8 12 17 12 13 20 19 12 12 11 10 11 9 8 8 8 8 8 8 9 9
1 1 2 1 1 2 3 5 9 8 8 9 6 5 8 9 9 7 3 3 1 3 5 5 5 6 5 4 4 2 4 5 6 6 3 4 4 3 2 1 2 1 5 5 4 3 4 5 7 9 11 13 9 7 10 11 9 9 12 14 15 17 19 20 21 21 17 14 15 18 15 15 19 17 10 9 9 8 7 4 5 6 7 8 8 8 9 9
1 0 1 1 1 0 0 5 9 8 7 8 6 5 8 10 11 8 4 5 4 3 6 10 9 6 6 5 4 3 5 4 3 3 4 5 4 3 3 4 2 1 3 5 3 2 3 4 5 7 6 9 10 8 9 11 10 9 10 12 15 16 17 18 17 15 13 12 15 18 17 17 16 10 8 8 5 4 5 5 6 7 8 9 9 9 9 9
1 2 2 1 1 2 1 2 6 7 5 7 7 6 8 11 12 9 4 4 6 6 8 11 10 5 4 5 6 9 9 3 5 2 4 5 4 3 2 3 4 4 5 5 3 3 4 3 1 5 4 8 8 8 8 7 5 6 10 15 17 15 13 13 12 12 12 13 15 14 14 17 12 4 6 9 6 7 10 10 7 8 9 10 11 10 9 10
3 2 2 1 0 2 2 2 4 6 5 8 10 8 8 9 9 9 4 3 6 9 9 9 8 4 3 6 10 11 7 4 4 4 4 4 3 3 3 2 4 4 6 5 2 2 5 4 2 5 6 8 5 8 9 6 2 7 13 15 16 13 11 9 9 13 15 14 12 12 14 17 10 5 7 11 6 8 11 8 7 10 10 10 11 10 10 11
Wind_Direction
188 183 184 194 192 187 188 189 189 183 178 179 183 182 185 190 196 195 189 191 196 198 200 203 206 211 216 222 228 234 242 238 230 209 205 220 215 214 226 219 222 226 214 202 194 192 195 272 274 17 84 111 43 111 24 10 76 56 87 105 150 189 190 184 188 203 174 164 188 205 165 134 155 216 190 57 57 75 62 34 3 4 16 14 60 148 154 161
188 185 187 192 191 188 189 191 187 182 178 180 184 180 184 188 193 193 188 192 196 198 200 201 204 208 214 220 222 230 243 237 242 245 229 216 201 212 228 216 212 211 202 198 198 177 135 348 348 59 74 81 340 16 37 338 92 91 112 98 215 210 192 196 201 212 189 159 166 181 169 156 172 170 136 127 119 101 89 17 357 20 16 40 110 140 151 159
185 185 188 193 196 196 191 189 184 183 181 184 188 182 184 187 189 190 190 193 194 196 197 199 202 205 211 214 214 219 221 220 287 261 234 209 198 213 217 202 203 205 198 195 195 176 156 229 15 90 71 52 312 43 81 6 117 153 113 96 233 215 199 215 193 229 251 174 150 165 170 166 197 168 143 151 155 150 155 186 89 205 230 140 139 146 152 161
186 190 195 200 203 198 188 185 185 186 185 189 191 185 183 183 185 188 190 192 193 194 194 194 197 200 207 207 199 193 166 70 272 239 214 201 201 209 204 197 198 200 200 195 185 187 212 316 86 119 85 50 323 35 150 267 194 137 104 164 221 184 151 261 230 291 287 162 152 150 132 166 228 175 147 140 138 241 233 209 192 195 188 168 175 166 161 166
190 195 200 204 202 190 183 185 187 187 187 190 189 187 183 181 184 186 187 193 195 194 192 190 191 193 198 194 182 180 135 84 247 226 195 194 198 202 198 196 195 196 198 192 187 194 217 86 80 84 77 127 352 44 217 245 119 79 27 202 210 150 142 279 297 341 52 100 122 132 144 184 178 141 146 147 160 225 226 213 206 190 173 171 176 175 171 172
192 194 197 202 199 185 184 186 187 188 188 187 187 188 183 180 181 182 185 191 195 195 191 186 185 185 185 177 174 173 144 157 259 209 192 189 188 194 190 191 190 193 197 187 189 171 135 80 76 98 83 110 152 152 206 265 81 97 271 274 283 191 146 292 323 345 96 106 123 152 172 144 119 177 165 162 194 226 221 207 208 190 171 171 167 169 174 180
189 190 192 198 196 183 184 186 186 188 187 184 185 184 181 182 179 180 185 189 193 192 188 182 178 179 169 158 159 135 122 240 272 173 185 180 181 188 180 186 186 195 195 170 153 132 114 85 101 145 100 92 170 178 177 34 50 96 181 291 359 121 105 185 299 33 93 113 156 163 131 137 149 176 131 192 229 243 259 240 187 168 160 161 160 174 183 185
188 189 192 197 196 182 182 185 185 187 183 181 187 179 176 180 179 180 184 188 191 187 186 178 172 170 159 153 141 72 358 248 229 173 176 174 179 179 175 183 183 195 186 160 132 142 132 109 153 159 105 181 173 156 136 71 40 85 161 220 85 47 22 330 70 58 75 92 89 100 110 208 183 160 133 237 243 245 262 33 100 138 144 160 171 184 189 190
191 193 196 200 198 185 183 185 183 185 181 180 194 193 181 180 180 182 183 187 186 183 182 173 172 166 160 150 110 102 230 226 184 172 171 172 175 172 177 182 180 188 172 179 173 144 148 152 191 178 151 203 144 138 141 102 236 170 146 162 113 42 317 19 60 52 68 59 58 107 50 301 251 281 272 245 237 219 151 73 102 133 145 174 181 187 190 194
195 196 199 203 200 191 189 189 184 184 185 183 197 204 190 183 183 184 182 182 181 179 175 171 172 165 164 145 99 152 232 211 177 172 168 171 172 172 179 181 181 188 175 175 171 148 151 177 185 147 140 145 110 115 121 134 186 150 115 105 82 52 319 12 83 40 54 29 59 134 203 308 325 335 261 262 250 148 125 120 152 148 164 186 187 194 194 197
196 196 200 202 201 200 197 199 194 184 185 188 197 202 194 189 185 185 180 179 179 172 170 171 169 165 165 132 120 189 232 189 181 171 169 171 170 177 183 187 187 188 186 159 171 169 149 175 156 115 131 140 106 54 23 134 127 124 116 83 15 3 349 27 100 11 23 67 94 125 131 310 352 334 231 259 346 149 152 160 184 179 186 193 194 199 197 205
195 196 200 201 202 205 204 209 205 192 190 191 197 201 196 192 184 181 180 178 175 168 167 166 165 163 147 102 155 203 197 174 179 171 171 169 167 178 183 191 195 192 196 170 182 181 143 162 120 107 191 138 115 76 134 113 102 121 106 88 350 3 6 302 97 297 52 104 256 115 52 298 260 234 237 253 65 159 164 171 196 206 207 203 202 205 203 214
192 195 201 202 202 205 207 211 208 205 205 201 200 201 195 192 182 177 178 175 169 164 163 161 164 162 136 101 216 207 198 180 176 171 170 169 169 176 181 189 194 194 201 200 196 181 163 199 115 121 135 108 125 179 124 73 89 124 76 94 26 16 344 287 325 324 117 115 313 103 220 277 252 244 252 301 52 136 163 192 206 217 221 216 212 213 217 220
191 196 200 201 201 204 210 210 208 213 213 207 203 196 191 187 175 168 165 169 166 159 159 158 162 161 139 224 225 213 205 182 174 172 167 169 165 165 176 179 184 192 202 208 187 170 165 162 110 104 97 99 137 120 70 30 51 105 79 70 65 103 267 296 315 131 136 157 30 92 184 266 272 270 278 300 236 153 180 210 211 225 233 231 226 222 227 225
191 195 198 200 201 203 211 213 212 214 208 205 203 190 185 178 164 155 157 163 158 155 156 156 161 151 92 282 263 192 184 175 175 173 165 166 159 157 170 166 165 168 165 164 157 150 145 136 99 84 73 37 81 90 57 16 23 53 104 321 347 150 252 306 287 156 151 273 35 88 203 267 278 280 286 299 171 159 197 221 223 232 234 235 235 228 232 235
191 193 197 199 201 205 211 214 214 209 201 201 195 181 170 160 151 147 154 153 146 154 147 147 169 152 107 240 157 152 172 176 176 172 166 167 166 158 155 150 145 143 140 136 136 131 113 101 70 93 121 61 80 99 70 36 357 2 98 192 259 148 247 309 292 217 165 196 12 77 214 264 279 278 290 326 74 141 215 244 247 242 240 237 233 231 230 239
188 191 195 198 202 206 209 213 210 198 195 194 182 167 152 142 140 137 141 138 136 141 124 122 177 163 88 125 106 170 185 180 176 173 169 169 170 156 146 137 132 134 125 112 120 108 64 56 46 139 76 71 105 100 84 55 264 287 53 153 221 166 174 268 278 293 74 126 291 51 218 251 265 280 293 316 34 121 233 249 251 246 248 245 239 241 235 234
189 190 192 197 204 205 207 209 202 189 186 184 166 144 129 119 117 122 128 127 118 110 82 59 139 163 252 192 181 195 175 171 174 172 170 169 169 160 146 117 122 117 93 71 80 69 32 26 59 84 40 56 131 101 121 205 195 187 178 156 206 187 189 235 245 254 64 90 228 141 237 258 268 280 284 290 297 225 245 246 250 252 250 251 249 248 242 236
190 190 192 198 200 202 204 197 188 182 178 172 151 131 114 101 98 107 121 123 115 109 151 197 149 162 220 206 184 132 138 157 163 167 169 165 168 169 130 91 103 96 98 82 43 69 82 57 65 112 144 171 184 158 168 201 173 166 172 149 156 165 217 242 253 267 136 116 236 217 224 258 271 279 279 279 253 214 253 263 259 258 251 251 251 250 248 239
191 190 192 195 194 200 197 183 178 176 173 167 152 132 115 113 93 78 94 136 185 159 170 196 177 154 272 186 130 119 122 132 146 166 168 166 162 158 91 60 59 59 111 140 146 140 92 109 156 184 191 192 192 179 155 158 142 136 125 110 142 152 210 255 275 307 84 136 257 243 241 262 266 270 270 274 270 225 251 259 257 255 249 246 243 247 247 238
189 189 191 190 193 198 185 173 172 172 172 171 162 146 155 158 120 151 205 292 241 208 81 183 154 102 27 127 138 136 117 91 47 163 167 173 147 148 136 39 81 84 159 154 135 47 69 131 205 216 201 187 180 166 125 107 92 96 122 115 86 130 199 257 246 302 5 134 273 331 303 266 259 264 267 271 275 250 236 238 247 248 246 246 242 246 249 247
184 184 187 189 191 185 172 167 171 174 176 177 177 195 236 188 124 156 151 133 232 207 109 142 99 50 39 138 156 145 74 90 154 243 189 167 118 157 158 68 124 154 173 115 102 53 62 186 227 224 191 137 116 133 114 99 91 82 108 120 99 148 207 299 297 311 12 105 274 346 332 274 259 255 260 257 252 249 236 227 239 246 248 248 240 243 249 255
179 179 181 184 179 170 167 169 172 179 182 183 195 205 196 93 122 153 135 101 187 184 113 167 135 100 59 147 187 154 81 133 172 223 207 156 127 167 133 105 135 142 130 141 135 127 133 240 235 197 141 114 99 120 112 92 78 87 104 126 172 235 156 280 302 315 4 58 281 334 312 280 275 268 264 256 250 262 260 243 242 241 242 245 244 244 241 243
172 174 179 178 173 169 168 165 167 186 193 196 211 198 147 110 142 164 123 82 152 200 250 211 155 155 155 163 183 158 119 148 165 192 189 154 142 146 144 141 129 126 162 160 143 150 198 252 200 120 108 115 115 119 128 120 65 39 128 137 168 196 165 174 278 322 3 16 27 6 323 290 307 325 284 277 298 286 272 270 261 245 242 252 264 258 239 234
166 170 176 174 174 171 162 158 174 192 193 205 218 195 138 108 144 174 104 75 163 314 309 235 164 182 176 144 166 170 138 132 199 191 181 163 147 133 165 150 123 164 185 141 130 161 233 262 130 115 86 90 114 132 160 144 105 331 205 168 164 159 153 142 35 49 38 353 339 26 360 290 309 319 277 291 319 290 295 328 281 262 252 249 259 262 253 248
168 172 175 172 170 164 155 164 194 183 177 210 211 182 152 123 129 181 99 61 269 258 155 182 159 178 175 150 165 149 114 224 286 132 152 161 150 110 143 150 90 175 174 137 134 173 240 341 91 122 115 91 99 128 188 138 109 196 219 162 144 124 116 119 85 69 86 258 297 53 102 267 300 282 257 279 295 287 297 300 275 269 265 242 240 260 264 259
166 171 171 169 165 161 156 164 173 164 167 218 197 169 161 133 136 187 77 49 278 194 142 187 332 165 171 170 160 134 160 212 107 80 117 141 177 60 121 185 128 153 167 122 127 223 183 69 69 91 92 94 107 143 195 130 112 209 209 130 127 114 118 131 108 96 201 243 321 18 119 237 290 257 253 291 304 295 292 281 272 266 264 259 243 242 246 250
163 165 164 166 167 165 157 141 157 162 183 186 175 169 151 132 147 139 85 93 247 138 139 210 140 148 153 141 133 120 202 193 122 184 334 89 137 47 101 197 166 147 131 118 175 253 159 140 148 116 89 111 168 208 200 117 99 237 189 129 130 123 128 124 99 91 12 10 318 314 129 195 273 272 293 327 295 287 279 270 271 269 270 279 274 250 248 250
164 162 161 164 169 172 163 151 162 169 159 152 159 167 146 136 142 86 83 172 193 77 140 154 135 146 128 109 101 75 43 49 120 216 350 84 115 46 125 192 149 122 47 95 167 238 56 184 185 134 123 174 193 243 214 131 104 189 142 102 75 75 82 76 91 103 42 16 258 243 186 194 267 284 308 340 243 259 265 267 267 275 283 277 257 252 262 276
170 166 166 164 170 183 191 170 173 163 142 145 153 155 141 130 122 107 172 211 150 97 238 152 170 159 139 137 115 20 94 50 47 102 39 77 28 28 113 142 97 100 30 38 101 266 313 265 187 111 143 180 152 108 185 146 128 131 103 67 46 32 38 45 57 81 66 293 256 235 202 185 275 280 260 218 214 223 247 277 288 305 306 279 255 255 273 304
174 171 173 170 175 187 186 178 181 166 143 145 151 150 132 85 84 140 198 213 125 110 89 160 194 146 153 158 155 133 95 48 142 132 126 142 52 46 113 105 74 85 50 37 36 329 352 21 342 303 167 131 102 72 29 14 83 101 85 76 60 351 12 23 2 43 122 255 265 267 238 156 231 259 255 252 255 239 232 258 287 310 306 286 276 268 262 264
174 175 179 177 181 184 173 152 178 171 154 148 146 134 100 96 183 199 201 181 151 188 176 177 204 170 161 153 135 150 126 79 184 146 144 146 148 172 172 170 154 119 160 181 103 356 21 9 302 310 274 137 103 79 30 1 31 78 92 95 87 338 7 354 318 37 223 248 272 304 300 207 234 245 255 265 265 247 219 222 256 286 288 276 274 269 261 273
176 177 180 182 185 183 175 150 171 172 163 152 138 63 78 130 210 209 199 204 192 182 155 146 142 148 150 142 148 161 121 130 188 151 144 134 151 206 231 198 148 125 180 186 126 119 340 312 309 351 297 201 129 124 131 304 89 129 138 128 128 129 113 264 273 279 263 263 291 321 305 261 278 262 241 246 253 249 229 236 251 256 255 256 264 273 274 272
177 178 181 185 188 187 183 161 166 170 164 151 126 80 125 183 210 187 182 215 216 67 105 124 112 124 145 151 179 175 111 149 181 138 137 132 144 204 229 225 157 104 115 146 148 165 174 277 242 176 227 202 167 168 156 149 153 173 155 133 144 155 158 206 221 217 249 283 297 305 287 207 221 279 253 243 265 288 288 282 278 265 258 268 281 283 272 259
177 179 182 184 191 193 186 163 157 164 162 141 119 146 183 203 211 179 180 191 163 56 58 108 120 131 157 103 212 197 145 159 183 138 156 169 171 193 195 202 194 133 127 160 197 165 155 244 256 270 260 169 174 220 130 113 113 230 130 106 159 184 148 142 190 178 182 307 295 255 238 214 207 278 278 261 274 290 293 296 310 297 278 292 296 272 240 236
171 178 180 182 192 197 190 177 151 160 166 129 142 194 205 204 209 190 183 157 141 125 103 91 106 137 171 144 202 222 152 122 159 150 188 193 190 196 188 200 194 171 158 157 173 168 144 261 290 334 334 163 165 196 123 121 176 175 136 175 216 180 120 113 239 64 82 264 272 227 251 284 329 289 283 291 283 283 294 305 314 295 278 288 288 270 223 213
157 172 176 179 193 201 196 186 147 148 164 141 180 207 195 164 190 168 155 125 135 137 126 136 160 149 167 162 187 208 177 111 155 164 194 198 225 197 189 225 196 181 185 154 162 195 151 209 300 32 189 271 253 139 62 34 128 128 172 211 196 114 85 106 199 351 41 254 273 271 250 279 316 272 308 359 302 259 270 285 296 299 303 300 282 281 278 243
139 152 166 180 195 203 198 193 174 117 98 153 208 223 157 190 211 110 96 126 135 138 140 162 166 142 168 173 183 191 173 159 176 179 176 192 246 198 167 201 205 186 197 169 161 211 144 154 308 16 189 288 347 114 87 2 76 126 181 183 119 120 186 108 156 203 144 243 276 294 279 262 217 228 276 353 225 222 247 276 298 298 291 277 271 282 298 289
127 119 330 175 190 205 199 194 185 103 100 186 210 223 194 211 230 24 328 164 140 138 156 182 166 133 174 171 166 178 184 178 172 177 181 183 241 219 170 182 197 187 195 173 163 198 144 163 257 296 239 301 9 147 193 215 42 59 93 117 99 137 171 163 158 168 166 203 256 304 315 264 221 205 191 209 222 209 229 265 275 264 259 258 266 278 286 283
122 83 306 167 180 195 187 178 155 129 188 205 203 206 215 257 314 327 316 314 143 146 167 192 172 148 169 167 160 175 188 178 166 180 204 183 209 240 198 188 180 178 184 166 161 170 131 172 213 294 334 241 204 212 186 170 150 141 159 172 182 108 109 159 159 126 140 162 197 274 291 264 245 197 176 197 218 207 209 229 241 252 263 267 263 262 269 270
116 99 199 175 174 167 154 143 119 171 200 217 158 141 52 346 352 319 320 354 70 79 155 163 158 152 153 151 174 180 164 162 173 183 208 197 202 230 212 188 163 150 146 150 191 187 157 168 168 157 268 208 228 253 193 184 175 165 183 195 187 160 126 156 237 253 131 159 176 185 272 268 237 186 186 194 212 221 216 220 241 259 264 268 268 262 262 264
129 136 208 176 168 154 128 83 7 158 150 162 165 110 85 31 30 333 317 356 47 11 30 117 134 154 158 159 175 170 153 160 183 186 206 213 207 218 219 184 153 149 152 170 200 182 114 113 129 164 220 216 240 280 223 209 205 138 192 200 178 161 136 153 209 238 178 216 178 125 276 273 213 171 212 210 212 229 214 201 228 253 258 273 291 293 281 265
149 128 178 172 165 149 120 85 346 126 139 256 269 20 65 59 34 348 336 5 45 25 3 60 127 154 179 166 150 159 168 174 189 196 208 219 218 223 207 169 150 156 162 170 188 166 97 114 130 200 304 311 308 330 10 30 154 209 240 178 155 172 152 149 180 182 169 216 177 125 256 265 273 265 267 261 244 244 210 193 218 266 289 293 294 297 296 282
144 66 115 173 165 147 125 161 179 179 173 88 32 2 33 29 50 83 34 20 12 45 71 51 41 71 188 153 146 171 183 180 197 208 204 210 230 226 175 167 162 162 176 184 178 178 191 167 131 118 15 343 338 333 323 302 193 203 219 176 162 152 120 109 139 135 213 224 178 171 244 248 285 313 309 7 338 307 287 239 220 252 282 295 304 309 311 308
129 87 354 180 166 154 157 169 155 155 143 123 129 185 161 341 189 148 126 114 73 91 112 56 356 9 332 144 144 176 189 185 185 205 209 215 252 262 180 180 179 180 198 192 164 165 187 182 155 158 182 206 211 213 221 202 165 199 209 187 185 165 150 163 163 158 230 226 169 188 244 244 275 328 318 6 353 304 284 287 280 260 271 297 307 307 315 319
124 148 189 14 76 158 173 137 141 151 150 149 159 191 185 205 264 147 154 192 191 117 95 354 309 357 10 149 150 174 206 214 168 152 200 209 227 278 204 181 191 201 190 157 150 145 144 186 194 193 202 208 207 206 168 135 150 206 209 186 189 190 181 176 158 193 221 223 187 223 242 251 262 257 246 266 267 253 276 301 313 299 297 299 285 278 290 285
154 157 171 161 92 191 200 157 162 168 163 165 171 179 183 195 234 151 173 210 196 143 127 344 173 192 193 160 171 186 203 216 194 152 196 206 213 299 289 164 201 209 166 147 162 136 107 208 213 207 219 222 208 195 163 153 174 200 199 188 193 197 188 184 202 220 217 208 244 240 225 243 258 247 227 243 250 252 266 270 272 279 282 285 286 288 285 276
194 117 203 186 149 195 199 186 179 169 155 164 169 164 176 184 190 189 188 204 142 147 177 263 223 200 189 133 144 187 184 198 220 210 190 180 174 3 27 77 221 196 139 153 190 142 133 214 215 200 225 236 214 175 175 178 187 197 196 194 197 196 191 196 214 224 214 200 239 245 219 217 250 253 233 231 239 239 246 247 248 257 264 269 277 283 282 282
119 302 281 336 55 210 197 159 165 168 163 167 170 164 171 182 192 196 154 109 136 198 196 221 219 187 174 139 127 162 182 182 212 225 187 156 167 144 121 200 261 150 131 155 198 171 159 217 210 187 218 239 221 185 187 191 191 200 204 200 199 200 199 203 215 222 220 217 233 249 245 234 246 255 243 227 224 225 236 240 227 230 242 253 257 261 266 267
111 327 277 5 57 213 88 135 157 173 176 176 189 185 173 183 192 192 161 148 172 185 195 218 220 180 168 175 159 205 215 154 137 216 184 157 189 191 171 191 188 114 146 164 185 199 196 219 197 162 198 245 230 196 191 198 196 204 217 216 212 210 208 212 219 221 223 229 237 248 257 256 251 248 245 236 200 190 237 227 214 226 235 240 244 245 248 254
194 23 65 115 173 173 163 148 160 171 175 182 197 188 182 197 192 176 183 193 173 165 184 209 221 201 166 175 197 231 237 153 100 167 153 142 180 194 181 186 153 142 174 179 160 162 185 217 127 122 182 243 226 179 178 193 198 219 235 230 221 215 213 214 216 215 211 217 232 241 250 257 252 205 233 242 170 175 237 234 223 241 239 238 244 240 237 247
195 4 43 92 341 181 176 157 166 180 188 195 200 187 183 199 182 159 181 237 196 189 188 186 190 183 172 204 221 233 225 149 141 170 137 121 126 111 111 134 119 137 167 168 150 148 166 184 165 146 200 244 225 154 147 138 154 248 244 228 217 217 217 215 223 227 217 207 215 225 233 248 247 160 223 252 202 196 236 229 216 237 238 237 245 240 237 243